Weather History for GMMX - November, 2014

Change the Weather History Date:

Thursday, November 27, 2014

  Actual Average Record
Temperature  
Mean Temperature 56 °F -  
Max Temperature 64 °F 65 °F 82 °F (2000)
Min Temperature 48 °F 44 °F 42 °F (1998)
Degree Days  
Heating Degree Days 9    
Growing Degree Days 6 (Base 50)    
Moisture  
Dew Point 52 °F    
Average Humidity 83    
Maximum Humidity 100    
Minimum Humidity 52    
Precipitation  
Precipitation 0.12 in 0.04 in - ()
Sea Level Pressure  
Sea Level Pressure 29.74 in    
Wind  
Wind Speed 10 mph ()    
Max Wind Speed 22 mph    
Max Gust Speed 32 mph    
Visibility 6.1 miles    
Events Rain    
Averages and records for this station are not official NWS values.
T = Trace of Precipitation, MM = Missing Value Source: Averaged Metar Reports

Daily Weather History Graph

Daily Weather History Graph

Search for Another Location

Airport or City:

Trip Planner

Search our weather history database for the weather conditions in past years. The results will help you decide how hot, cold, wet, or windy it might be!

Date:

Astronomy

Nov. 27, 2014 Rise Set
Actual Time 7:10 AM WET 5:28 PM WET
Civil Twilight 6:44 AM WET 5:55 PM WET
Nautical Twilight 6:14 AM WET 6:25 PM WET
Astronomical Twilight 5:44 AM WET 6:54 PM WET
Moon 11:23 AM WET (11/27) 10:44 PM WET (11/27)
Length of Visible Light 11h 11m
Length of Day
10h 18m
Waxing Crescent, 29% of the Moon is Illuminated
Nov 27
Waxing Crescent
Nov 29
First Quarter
Dec 6
Full
Dec 14
Last Quarter
Dec 22
New

Hourly Weather History & Observations

Time (WET) Temp. Dew Point Humidity Pressure Visibility Wind Dir Wind Speed Gust Speed Precip Events Conditions
12:00 AM 57 °F 54 °F 88% 29.86 in 6 mi NW 11.5 mph - -   Mostly Cloudy
12:00 AM 57.2 °F 53.6 °F 88% 29.86 in 6.2 mi NW 10.4 mph - N/A   Mostly Cloudy
1:00 AM 55.4 °F 55.4 °F 100% 29.86 in 6.2 mi WSW 6.9 mph - N/A   Scattered Clouds
1:30 AM 55.4 °F 55.4 °F 100% 29.83 in 6.2 mi SSW 6.9 mph - N/A   Scattered Clouds
2:00 AM 55.4 °F 55.4 °F 100% 29.86 in 6.2 mi WSW 3.5 mph - N/A   Scattered Clouds
2:30 AM 55.4 °F 55.4 °F 100% 29.83 in 6.2 mi West 9.2 mph - N/A Rain Light Rain
3:00 AM 54 °F 54 °F 100% 29.83 in 6 mi SW 8.1 mph - - Rain Rain
3:00 AM 55.4 °F 55.4 °F 100% 29.83 in 6.2 mi SW 8.1 mph - N/A Rain Light Rain
3:30 AM 53.6 °F 53.6 °F 100% 29.83 in 6.2 mi WSW 6.9 mph - N/A Rain Light Rain
4:00 AM 53.6 °F 53.6 °F 100% 29.83 in 6.2 mi WNW 15.0 mph - N/A Rain Light Rain
4:30 AM 53.6 °F 53.6 °F 100% 29.83 in 6.2 mi West 11.5 mph - N/A Rain Light Rain
5:00 AM 51.8 °F 51.8 °F 100% 29.80 in 6.2 mi WSW 9.2 mph - N/A Rain Rain
5:30 AM 51.8 °F 51.8 °F 100% 29.83 in 6.2 mi SW 11.5 mph - N/A Rain Rain
6:00 AM 53 °F 53 °F 98% 29.82 in 6 mi SW 10.4 mph - - Rain Rain
6:00 AM 53.6 °F 51.8 °F 94% 29.83 in 6.2 mi SW 10.4 mph - N/A Rain Light Rain
6:30 AM 53.6 °F 51.8 °F 94% 29.83 in 6.2 mi SW 10.4 mph - N/A Rain Light Rain
7:00 AM 53.6 °F 51.8 °F 94% 29.83 in 6.2 mi SW 9.2 mph - N/A Rain Light Rain
7:30 AM 51.8 °F 51.8 °F 100% 29.83 in 6.2 mi WSW 9.2 mph - N/A   Mostly Cloudy
8:00 AM 53.6 °F 51.8 °F 94% 29.83 in 6.2 mi SSW 5.8 mph - N/A   Mostly Cloudy
8:30 AM 55.4 °F 51.8 °F 88% 29.83 in 6.2 mi SW 8.1 mph - N/A   Mostly Cloudy
9:00 AM 57 °F 51 °F 74% 29.81 in 6 mi WSW 8.1 mph - -   Mostly Cloudy
9:00 AM 57.2 °F 51.8 °F 82% 29.80 in 6.2 mi SW 8.1 mph - N/A   Mostly Cloudy
9:30 AM 57.2 °F 51.8 °F 82% 29.80 in 6.2 mi SW 8.1 mph - N/A   Mostly Cloudy
10:00 AM 59.0 °F 51.8 °F 77% 29.83 in 6.2 mi WSW 10.4 mph - N/A   Mostly Cloudy
10:30 AM 60.8 °F 48.2 °F 63% 29.80 in 6.2 mi WSW 13.8 mph - N/A   Mostly Cloudy
11:00 AM 62.6 °F 48.2 °F 59% 29.80 in 6.2 mi WSW 19.6 mph - N/A   Mostly Cloudy
11:30 AM 62.6 °F 50.0 °F 63% 29.77 in 6.2 mi West 18.4 mph - N/A   Mostly Cloudy
12:00 PM 63 °F 50 °F 52% 29.73 in 6 mi West 19.6 mph - -   Mostly Cloudy
12:00 PM 62.6 °F 48.2 °F 59% 29.77 in 6.2 mi West 18.4 mph - N/A   Mostly Cloudy
12:30 PM 62.6 °F 48.2 °F 59% 29.74 in 6.2 mi West 19.6 mph - N/A   Mostly Cloudy
12:55 PM 62.6 °F 50.0 °F 63% 29.74 in 6.2 mi West 19.6 mph 32.2 mph N/A   Mostly Cloudy
1:00 PM 62.6 °F 50.0 °F 63% 29.74 in 6.2 mi West 19.6 mph - N/A   Mostly Cloudy
1:30 PM 64.4 °F 51.8 °F 64% 29.71 in 6.2 mi West 21.9 mph - N/A   Mostly Cloudy
2:00 PM 62.6 °F 51.8 °F 68% 29.71 in 6.2 mi West 21.9 mph - N/A   Mostly Cloudy
2:30 PM 62.6 °F 51.8 °F 68% 29.71 in 6.2 mi West 19.6 mph - N/A   Mostly Cloudy
3:02 PM 60.8 °F 51.8 °F 72% 29.71 in 6.2 mi West 21.9 mph - N/A   Mostly Cloudy
3:30 PM 60.8 °F 51.8 °F 72% 29.71 in 6.2 mi West 20.7 mph - N/A   Mostly Cloudy
4:00 PM 59.0 °F 51.8 °F 77% 29.71 in 6.2 mi West 18.4 mph - N/A   Mostly Cloudy
4:30 PM 59.0 °F 53.6 °F 82% 29.68 in 6.2 mi West 15.0 mph - N/A   Mostly Cloudy
5:00 PM 59.0 °F 53.6 °F 82% 29.68 in 6.2 mi West 17.3 mph - N/A   Mostly Cloudy
5:30 PM 57.2 °F 53.6 °F 88% 29.68 in 6.2 mi West 16.1 mph - N/A   Mostly Cloudy
6:00 PM 58 °F 53 °F 79% 29.65 in 6 mi SW 8.1 mph - -   Mostly Cloudy
6:00 PM 57.2 °F 53.6 °F 88% 29.68 in 6.2 mi WSW 8.1 mph - N/A   Mostly Cloudy
6:30 PM 57.2 °F 51.8 °F 82% 29.65 in 6.2 mi SSW 6.9 mph - N/A   Mostly Cloudy
7:00 PM 57.2 °F 51.8 °F 82% 29.65 in 6.2 mi SW 4.6 mph - N/A   Mostly Cloudy
7:30 PM 59.0 °F 51.8 °F 77% 29.62 in 6.2 mi SSW 6.9 mph - N/A   Mostly Cloudy
8:00 PM 57.2 °F 51.8 °F 82% 29.62 in 6.2 mi SW 4.6 mph - N/A   Mostly Cloudy
8:30 PM 57.2 °F 51.8 °F 82% 29.59 in 6.2 mi SW 4.6 mph - N/A   Mostly Cloudy
9:00 PM 58 °F 51 °F 70% 29.55 in 6 mi South 5.8 mph - -   Mostly Cloudy
9:00 PM 57.2 °F 50.0 °F 77% 29.56 in 6.2 mi South 5.8 mph - N/A   Mostly Cloudy
9:30 PM 59.0 °F 51.8 °F 77% 29.56 in 6.2 mi Calm Calm - N/A   Mostly Cloudy
10:00 PM 57.2 °F 51.8 °F 82% 29.56 in 5.0 mi Calm Calm - N/A Rain Light Rain
10:30 PM 57.2 °F 51.8 °F 82% 29.53 in 5.0 mi Calm Calm - N/A Rain Light Rain
11:00 PM 55.4 °F 53.6 °F 94% - 5.0 mi Calm Calm - N/A Rain Light Rain
11:46 PM 55 °F 54 °F 98% 29.51 in 5 mi SE 9.2 mph - - Rain Light Rain